St. Charles, IL

6:37 PM CDT on April 23, 2017 (GMT -0500)
Saint Charles County Smartt

Weather History for KSET - November, 2012

Change the Weather History Date:

Friday, November 16, 2012

  Actual Average (KSTL) Record (KSTL)
Temperature  
Mean Temperature 42 °F -  
Max Temperature 57 °F 54 °F 78 °F (1952)
Min Temperature 28 °F 35 °F 13 °F (1959)
Degree Days  
Heating Degree Days 22    
Moisture  
Dew Point 31 °F    
Average Humidity 81    
Maximum Humidity 100    
Minimum Humidity 37    
Precipitation  
Precipitation 0.01 in - - ()
Sea Level Pressure  
Sea Level Pressure 30.42 in    
Wind  
Wind Speed 1 mph (East)    
Max Wind Speed 8 mph    
Max Gust Speed -    
Visibility 5 miles    
Events Fog    
Averages and records for this station are not official NWS values.
T = Trace of Precipitation, MM = Missing Value Source: NWS Daily Summary

Daily Weather History Graph

Daily Weather History Graph

Search for Another Location

Airport or City:

Trip Planner

Search our weather history database for the weather conditions in past years. The results will help you decide how hot, cold, wet, or windy it might be!

Date:

Astronomy

Nov. 16, 2012 Rise Set
Actual Time 6:46 AM CST 4:46 PM CST
Civil Twilight 6:17 AM CST 5:15 PM CST
Nautical Twilight 5:45 AM CST 5:47 PM CST
Astronomical Twilight 5:13 AM CST 6:19 PM CST
Moon 9:40 AM CST (11/16) 7:46 PM CST (11/16)
Length of Visible Light 10h 57m
Length of Day
10h 00m
Waxing Crescent, 12% of the Moon is Illuminated
Nov 16
Waxing Crescent
Nov 20
First Quarter
Nov 28
Full
Dec 6
Last Quarter
Dec 13
New

Hourly Weather History & Observations

Time (CST) Temp. Windchill Dew Point Humidity Pressure Visibility Wind Dir Wind Speed Gust Speed Precip Events Conditions
12:54 AM 34.0 °F - 30.9 °F 89% 30.40 in 10.0 mi Calm Calm - N/A   Clear
1:04 AM 33.8 °F - 30.2 °F 87% 30.39 in 2.5 mi Calm Calm - N/A   Clear
1:12 AM 33.8 °F - 30.2 °F 87% 30.39 in 9.0 mi Calm Calm - N/A   Clear
1:54 AM 32.0 °F - 28.9 °F 88% 30.40 in 3.0 mi Calm Calm - N/A   Clear
2:03 AM 32.0 °F - 28.4 °F 87% 30.40 in 1.5 mi Calm Calm - N/A   Clear
2:05 AM 30.2 °F - 28.4 °F 93% 30.40 in 0.8 mi Calm Calm - N/A   Mist
2:19 AM 32.0 °F 28.7 °F 30.2 °F 93% 30.40 in 1.5 mi East 3.5 mph - N/A   Partly Cloudy
2:21 AM 30.2 °F 26.7 °F 30.2 °F 100% 30.40 in 3.0 mi East 3.5 mph - N/A   Partly Cloudy
2:54 AM 32.0 °F - 30.0 °F 92% 30.40 in 5.0 mi Calm Calm - N/A   Clear
3:54 AM 32.0 °F - 28.9 °F 88% 30.40 in 7.0 mi Calm Calm - N/A   Clear
4:15 AM 32.0 °F - 30.2 °F 93% 30.40 in 1.2 mi Calm Calm - N/A   Clear
4:23 AM 32.0 °F - 30.2 °F 93% 30.40 in 0.2 mi Calm Calm - N/A Fog Fog
4:54 AM 30.9 °F - 28.9 °F 92% 30.41 in 1.0 mi Calm Calm - N/A   Mist
5:01 AM 30.2 °F - 28.4 °F 93% 30.40 in 0.2 mi Calm Calm - N/A Fog Light Freezing Fog
5:37 AM 30.2 °F - 28.4 °F 93% 30.41 in 1.0 mi Calm Calm - N/A   Clear
5:49 AM 30.2 °F - 28.4 °F 93% 30.41 in 0.2 mi Calm Calm - N/A Fog Light Freezing Fog
5:54 AM 30.9 °F - 28.9 °F 92% 30.42 in 0.5 mi Calm Calm - N/A Fog Light Freezing Fog
5:59 AM 30.2 °F - 28.4 °F 93% 30.41 in 2.0 mi Calm Calm - N/A   Clear
6:01 AM 28.4 °F - 28.4 °F 100% 30.41 in 4.0 mi Calm Calm - N/A   Partly Cloudy
6:09 AM 30.2 °F - 28.4 °F 93% 30.41 in 0.8 mi Calm Calm - N/A   Mist
6:18 AM 30.2 °F - 28.4 °F 93% 30.41 in 0.2 mi Calm Calm - N/A Fog Light Freezing Fog
6:54 AM 30.0 °F - 28.0 °F 92% 30.43 in 0.2 mi Calm Calm - N/A Fog Light Freezing Fog
7:44 AM 32.0 °F 28.7 °F 30.2 °F 93% 30.45 in 2.0 mi East 3.5 mph - N/A   Clear
7:54 AM 33.1 °F 30.0 °F 32.0 °F 96% 30.46 in 3.0 mi East 3.5 mph - N/A   Clear
8:54 AM 39.0 °F - 36.0 °F 89% 30.47 in 6.0 mi Calm Calm - 0.01 in   Clear
9:54 AM 46.0 °F - 36.0 °F 68% 30.46 in 8.0 mi Calm Calm - N/A   Clear
10:54 AM 50.0 °F - 33.1 °F 52% 30.46 in 10.0 mi Calm Calm - N/A   Clear
11:54 AM 54.0 °F - 30.9 °F 41% 30.45 in 10.0 mi Calm Calm - N/A   Clear
12:54 PM 57.0 °F - 33.1 °F 40% 30.43 in 10.0 mi South 4.6 mph - N/A   Clear
1:54 PM 57.9 °F - 32.0 °F 37% 30.42 in 10.0 mi Calm Calm - N/A   Clear
2:54 PM 57.9 °F - 34.0 °F 41% 30.41 in 10.0 mi East 3.5 mph - N/A   Clear
3:54 PM 57.0 °F - 36.0 °F 45% 30.42 in 10.0 mi ESE 3.5 mph - N/A   Clear
4:54 PM 50.0 °F - 36.0 °F 59% 30.42 in 10.0 mi ESE 5.8 mph - N/A   Clear
5:54 PM 43.0 °F 38.8 °F 34.0 °F 71% 30.44 in 10.0 mi East 6.9 mph - N/A   Clear
6:54 PM 39.0 °F 33.4 °F 32.0 °F 76% 30.44 in 10.0 mi East 8.1 mph - N/A   Clear
7:54 PM 39.9 °F 36.7 °F 34.0 °F 79% 30.44 in 10.0 mi East 4.6 mph - N/A   Clear
8:54 PM 39.0 °F 36.8 °F 34.0 °F 82% 30.45 in 10.0 mi East 3.5 mph - N/A   Clear
9:54 PM 37.0 °F - 35.1 °F 93% 30.45 in 7.0 mi Calm Calm - N/A   Clear
10:54 PM 37.0 °F 31.6 °F 30.9 °F 79% 30.46 in 9.0 mi East 6.9 mph - N/A   Clear
11:54 PM 37.0 °F 34.5 °F 34.0 °F 89% 30.46 in 8.0 mi East 3.5 mph - N/A   Clear